This demonstration page uses our WeatherBlox Daily Observations layout. Learn more.

38.89511, -77.03637

Hourly Observations for January 4, 2015

Temp ( °F °C ) Dew Point ( °F °C ) Humidity (%) Winds ( mph kmh ) Pressure ( in mb ) Visibility ( mi km ) Precip ( " mm )
12:01 am 00:01 Cloudy with Light Drizzle 43 6 37 3 81 81 S 5 7 30.12 1020 7 11.265408 0.001 0.001
12:45 am 00:45 Cloudy with Mist and Fog 43 6 37 3 81 81 S 8 13 30.09 1019 3 4.828032 0.001 0.001
12:52 am 00:52 Cloudy with Mist and Fog 43 6 37 3 81 81 S 9 15 30.09 1019 3 4.828032 0.001 0.001
1:00 am 01:00 Cloudy with Mist and Fog 43 6 37 3 81 81 S 9 15 30.09 1019 3 4.828032 0 0
1:16 am 01:16 Cloudy with Mist and Fog 43 6 37 3 81 81 S 9 15 30.06 1018 3 4.828032 0 0
1:26 am 01:26 Cloudy with Mist and Fog 43 6 37 3 81 81 S 12 19 30.06 1018 4 6.437376 0 0
1:52 am 01:52 Mostly Cloudy with Mist and Fog 43 6 37 3 81 81 S 10 17 30.06 1018 4 6.437376 0 0
2:52 am 02:52 Cloudy 45 7 39 4 81 81 SSW 9 15 30.03 1017 10 16.09344 0 0
3:52 am 03:52 Cloudy 45 7 41 5 87 87 S 12 19 30.03 1017 10 16.09344 0.001 0.001
4:52 am 04:52 Cloudy 46 8 41 5 82 82 SW 8 13 30 1016 10 16.09344 0.001 0.001
5:52 am 05:52 Cloudy with Light Rain 46 8 41 5 82 82 S 8 13 29.97 1015 10 16.09344 0.001 0.001
6:52 am 06:52 Cloudy with Light Rain 48 9 43 6 82 82 SSW 8 13 29.97 1015 10 16.09344 0.03 0.762
7:52 am 07:52 Cloudy with Light Rain 48 9 45 7 87 87 SSW 9 15 29.97 1015 10 16.09344 0.01 0.254
8:52 am 08:52 Cloudy 50 10 45 7 82 82 S 10 17 29.94 1014 10 16.09344 0.001 0.001
9:52 am 09:52 Cloudy 50 10 46 8 88 88 S 18 30 29.91 1013 10 16.09344 0 0
10:27 am 10:27 Cloudy 52 11 46 8 82 82 S 20 31 29.88 1012 10 16.09344 0 0
10:52 am 10:52 Cloudy 54 12 48 9 82 82 S 20 31 29.85 1011 10 16.09344 0 0
11:01 am 11:01 Cloudy 54 12 48 9 82 82 S 17 28 29.85 1011 10 16.09344 0 0
11:52 am 11:52 Cloudy 57 14 52 11 82 82 SSW 16 26 29.83 1010 10 16.09344 0 0
12:52 pm 12:52 Cloudy 61 16 52 11 72 72 SSW 16 26 29.8 1009 10 16.09344 0.01 0.254
1:52 pm 13:52 Cloudy 55 13 50 10 82 82 S 8 13 29.77 1008 10 16.09344 0 0
2:52 pm 14:52 Cloudy 59 15 52 11 77 77 S 9 15 29.77 1008 10 16.09344 0 0
3:52 pm 15:52 Cloudy 64 18 54 12 68 68 SSW 16 26 29.74 1007 10 16.09344 0 0
4:52 pm 16:52 Cloudy 64 18 54 12 68 68 SW 12 19 29.74 1007 10 16.09344 0 0
5:52 pm 17:52 Mostly Cloudy 64 18 54 12 68 68 SW 14 22 29.74 1007 10 16.09344 0 0
6:13 pm 18:13 Cloudy 64 18 55 13 73 73 SSW 14 22 29.74 1007 10 16.09344 0 0
6:52 pm 18:52 Cloudy 66 19 55 13 68 68 SSW 15 24 29.74 1007 10 16.09344 0 0
7:18 pm 19:18 Cloudy 66 19 55 13 68 68 NW 15 24 29.77 1008 10 16.09344 0 0
7:25 pm 19:25 Cloudy 64 18 48 9 56 56 NW 22 35 29.8 1009 10 16.09344 0 0
7:31 pm 19:31 Cloudy with Light Rain 63 17 48 9 59 59 WNW 26 43 29.83 1010 7 11.265408 0.001 0.001
7:34 pm 19:34 Cloudy with Rain 59 15 50 10 72 72 NW 16 26 29.83 1010 2.5 4.02336 0 0
7:40 pm 19:40 Cloudy with Light Rain 57 14 50 10 77 77 NW 10 17 29.83 1010 2.5 4.02336 0 0
7:43 pm 19:43 Cloudy with Light Rain 57 14 50 10 77 77 NW 14 22 29.83 1010 5 8.04672 0.11 2.794
7:52 pm 19:52 Cloudy with Rain 57 14 50 10 77 77 NW 10 17 29.83 1010 5 8.04672 0.13 3.302
8:52 pm 20:52 Cloudy 57 14 48 9 72 72 NW 12 19 29.88 1012 10 16.09344 0.02 0.508
9:52 pm 21:52 Mostly Cloudy 57 14 39 4 51 51 WNW 21 33 29.91 1013 10 16.09344 0 0
10:52 pm 22:52 Mostly Cloudy 54 12 34 1 47 47 WNW 14 22 29.94 1014 10 16.09344 0 0
11:52 pm 23:52 Mostly Cloudy 52 11 30 -1 44 44 NW 15 24 29.97 1015 10 16.09344 0 0

Powered by AerisWeather